Powrót do katalogu

STARLINK-34865

AktywnyŁącznośćVLEO
NORAD 65200·PAYLOAD·🇺🇸 United States

Wystrzelony Aug 14, 2025 z Cape Canaveral Space Force Station

Loading…

Następne Przeloty (najbliższe 24 godziny)

TLE

ŚwieżeSource: CelesTrak SupGP

Epoka: Sep 15, 2026, 04:08 UTC

1 65200C 25176C   26258.17270833  .00073390  00000+0  21676-2 0  2581
2 65200  53.1599 348.8754 0001313  82.9230 280.4384 15.34364673    10

Śledź STARLINK-34865 w czasie rzeczywistym z AllMySat

Download on the App Store